Regional Weather Roundup
Issued by NWS Wakefield, VA

Home | Current Version | Previous Version | Text Only | Print | Product List | Glossary Off
Versions: 1 2 3 4 5 6 7 8 9 10 11 12 13 14 15 16 17 18 19 20 21 22 23 24 25 26 27 28 29 30 31 32 33 34 35 36 37 38 39 40 41 42 43 44 45 46 47 48 49 50

000
ASUS41 KAKQ 041115
RWRAKQ

REGIONAL WEATHER ROUNDUP
NATIONAL WEATHER SERVICE WAKEFIELD VA
700 AM EDT WED MAY 04 2016

Note: "fair" indicates few or no clouds below 12,000 feet with no
significant weather and/or obstructions to visibility. * = Denotes
station may not report precipitation (e.g., rain,snow,etc.),
thunder or fog.

VAZ042-051-052>054-056-041200-
NORTHERN VIRGINIA

CITY           SKY/WX    TMP DP  RH WIND       PRES   REMARKS
WASH NATIONAL  LGT RAIN  54  52  93 NE10      29.74S
DULLES         CLOUDY    55  53  93 E5        29.73R FOG
FORT BELVOIR   CLOUDY    55  54  94 VRB2      29.73S
QUANTICO       CLOUDY    57  54  89 E9        29.73S
FREDERICKSBRG* CLOUDY    57  57 100 N3        29.71F
STAFFORD*      CLOUDY    56  54  94 NE3       29.76S FOG
WARRENTON      CLOUDY    56  52  85 NE5       29.72S FOG
CULPEPER*      CLOUDY    55  55 100 CALM      29.73S FOG
MANASSAS*      CLOUDY    55  55 100 CALM      29.73R
LEESBURG*      CLOUDY    55  55 100 SE6       29.74S FOG
WINCHESTER     FOG       50  48  93 CALM      29.72S VSB 1/2
FRONT ROYAL*   CLOUDY    52  52 100 CALM      29.71S VSB<1/4
LURAY*         FOG       52  52 100 CALM      29.73S VSB<1/4
$$

VAZ048-049-060>072-079>083-041200-
CENTRAL AND SOUTH CENTRAL VIRGINIA

CITY           SKY/WX    TMP DP  RH WIND       PRES   REMARKS
RICHMOND       CLOUDY    57  55  93 NE9       29.70S
CHESTERFIELD*  CLOUDY    59  46  63 N5        29.72R
PETERSBURG*    CLOUDY    61  61 100 N5        29.70S
HANOVER        CLOUDY    58  56  93 N3        29.72R
TAPPAHANNOCK*  CLOUDY    56  56 100 NE5       29.72R
QUINTON*       CLOUDY    56  56 100 NE6       29.70S FOG
CHARLOTTSVILLE CLOUDY    57  54  89 CALM      29.72S
GORDONSVILLE*  CLOUDY    56  56 100 NE3       29.71F FOG
ORANGE*        CLOUDY    55  55 100 CALM      29.73F FOG
LOUISA*        CLOUDY    61  57  88 NE3       29.70F FOG
BUMPASS*       CLOUDY    56  56  98 CALM      29.71F
FARMVILLE*     CLOUDY    60  60 100 N3        29.71R
CREWE*         CLOUDY    58  58 100 CALM      29.70S
FORT PICKETT*  NOT AVBL
CHASE CITY*    CLOUDY    58  57  95 CALM      29.71R
CLARKSVILLE*   CLOUDY    59  59 100 N3        29.71R
SOUTH HILL*    CLOUDY    59  59  98 N3        29.75S
LAWRENCEVILLE* CLOUDY    60  60 100 CALM      29.69S
EMPORIA*       CLOUDY    59  59 100 NW6       29.70S FOG
$$

VAZ088>098-041200-
SOUTHEAST VIRGINIA

CITY           SKY/WX    TMP DP  RH WIND       PRES   REMARKS
NORFOLK        CLOUDY    55  53  93 NE16      29.69S
VIRGINIA BEACH CLOUDY    57  53  86 NE14      29.68F FOG
NORFOLK NAVAL  CLOUDY    57  55  93 NE12      29.71S FOG
WEST POINT*    CLOUDY    56  55  98 NE5       29.73R
SALUDA*        CLOUDY    55  55 100 NE6       29.72R
NEWPORT NEWS   CLOUDY    57  55  93 NE8       29.70R
LANGLEY AFB    CLOUDY    56  56  98 NE9       29.69F
FORT EUSTIS    CLOUDY    57  57 100 E8        29.68S
WILLIAMSBURG*  CLOUDY    57  57 100 NE5       29.71F
HR EXEC AP*    CLOUDY    59  55  88 NE8       29.71S
FRANKLIN*      CLOUDY    58  58  97 NE7       29.69S
US460-WAKEFLD  CLOUDY    59  56  89 VRB3      29.69S FOG
$$

VAZ020-022-025-037-045-041200-
WEST CENTRAL AND SOUTHWEST VIRGINIA

CITY           SKY/WX    TMP DP  RH WIND       PRES   REMARKS
STAUNTON*      FAIR      51  51 100 CALM      29.74F
WAYNESBORO*    PTSUNNY   52  51  96 W7        29.73S
HOT SPRINGS VA CLOUDY    45  45 100 W7        29.73S
LYNCHBURG      CLOUDY    52  50  93 CALM      29.72F
DANVILLE       MOCLDY    56  50  80 NW5       29.72S
SOUTH BOSTON*  CLOUDY    59  57  95 NE3       29.72R
MARTINSVILLE   CLOUDY    51  48  90 NW6       29.76S
ROANOKE        CLOUDY    53  49  86 W3        29.75F
BLACKSBURG     CLOUDY    50  48  93 CALM      29.78F
DUBLIN*        CLOUDY    52  48  85 W5        29.77S
MARION*        MOCLDY    46  44  91 W3        29.80S
HILLSVILLE*    CLOUDY    48  45  90 NW6       29.75F
RICHLANDS*     LGT RAIN  48  33  56 W6        29.79R
WISE*          RAIN      45  41  87 SW6       29.81R
ABINGDON*      CLOUDY    53  47  81 CALM      29.80S
$$

MDZ021>025-VAZ099-100-041200-
SOUTHERN MARYLAND AND THE DELMARVA PENINSULA

CITY           SKY/WX    TMP DP  RH WIND       PRES   REMARKS
PATUXENT RIVER CLOUDY    53  50  89 NE7       29.73S
BAY BRIDGE APT NOT AVBL
LEONARDTOWN    CLOUDY    52  50  93 NE3       29.74F
DOVER          CLOUDY    50  50 100 NE9       29.75S
GEORGETOWN     LGT RAIN  50  50 100 NE12      29.74F FOG
EASTON         CLOUDY   N/A N/A N/A E7        29.78R FOG
CAMBRIDGE      CLOUDY    50  50 100 E6        29.74S
SALISBURY      CLOUDY    51  50  96 NE7       29.73F
OCEAN CITY     CLOUDY    51  50  96 NE10      29.72F FOG
WALLOPS ISLAND LGT RAIN  52  51  97 N8        29.72S
ACCOMACK*      LGT RAIN  52  43  71 NE7       29.70F
$$

NCZ012>017-030>032-041200-
NORTH CENTRAL AND EASTERN NORTH CAROLINA

CITY           SKY/WX    TMP DP  RH WIND       PRES   REMARKS
ROANOKE RAPIDS CLOUDY    61  61 100 N3        29.68S FOG
RALEIGH        MOCLDY    57  55  93 CALM      29.72R
ELIZABETH CITY CLOUDY    63  62  97 NE10      29.66F
AHOSKIE*       CLOUDY    59  59  98 CALM      29.68F
EDENTON*       MOCLDY    64  64 100 CALM      29.67S FOG
CURRITUCK*     NOT AVBL
KILL DEVIL HLS PTCLDY    63  62  97 N7        29.64F
MANTEO         NOT AVBL
CAPE HATTERAS  CLOUDY    67  65  93 W6        29.67R
TARBORO*       CLOUDY    61  60  98 CALM      29.70R FOG
GOLDSBORO      CLOUDY    62  62 100 W5        29.67R
WASHINGTON     CLOUDY    62  61  97 CALM      29.66R FOG
GREENVILLE     CLOUDY    63  63 100 NW3       29.71R FOG
NEW BERN       CLOUDY    64  62  93 CALM      29.70R
WILMINGTON     MOCLDY    65  63  93 S5        29.69S
$$

VAZ048-041200-
ELSEWHERE

CITY           SKY/WX    TMP DP  RH WIND       PRES   REMARKS
HARRISBURG PA  LGT RAIN  53  49  86 SE12      29.74S FOG
BALTIMORE      CLOUDY    53  50  89 NE9       29.73S
ANNAPOLIS      CLOUDY    53  50  89 NE6       29.74S
ANDREWS AFB    CLOUDY    52  51  95 E6        29.72S
PHILADELPHIA   CLOUDY    51  47  86 E12       29.78R
HENDERSON NC   CLOUDY    60  60 100 NW3       29.70S
GREENSBORO     CLOUDY    58  48  69 N5        29.73R
ROCKY MOUNT    CLOUDY    62  61  96 N5        29.69R
$$

VAZ100-041200-
MARINE

STATION/POSITION TIME  TEMP    WIND        PRES    WAVE   SWELL
                       AIR SEA DIR/SP/G            HT/PER HT/PER
                 (UTC) (F)     (DEG/KT/KT) (MB)    (FT/S) (FT/S)
BRANDYWINE LGT   1000   50      70/ 12/ 15 1007.4R
CAPE MAY NJ      1000   50 58   60/  5/ 10 1006.3F
LEWES DE         1000   51 56   50/ 10/ 12 1007.4R
15NM E FENWICK I 1050   50 51              1006.6R   5/ 6
OCEAN-CITY-INLET 1000   51 55   30/  8/ 12 1006.6R
WACHAPREAGUE VA  1000   54 62   50/ 18/ 20 1005.1F
THOMAS POINT MD  1100   52 59   90/  8/  9 1008.6R
GOOSES REEF MD   1000   54 59   60/ 12/ 14 1007.6F   1/ 2
COVE POINT MD    1000   52      70/  8/ 10 1007.4R
SOLOMONS ISLAND  1000   53 61   30/  5/  6   N/A
BISHOPS HEAD MD  1000   53 62   50/ 10/ 14 1005.9R
PINEY POINT MD   1006           90/  8/ 10   N/A
POTOMAC MD       1000   54 59   50/ 10/ 12 1005.7R   1
CAMBRIDGE MD     1000   52 62   50/  9/ 13 1006.0R
LEWISETTA VA     1000   54 63   60/  6/  8 1006.4R
RAPPAHANNOCK LGT 1000           40/ 10/ 12 1006.4R
STINGRAY PT      1000   55 62   50/ 16/ 17 1005.8F   2/ 3
YORK RVR RNG VA  1000   57      60/ 14/ 15 1005.0R
YORKTOWN VA      1000   57 63   40/ 11/ 13 1005.3R
JAMESTOWN VA     1000   57 67   30/  4/  6   N/A     0
DOMINION TERM VA 1000   58      50/  9/ 14 1005.6R
KIPTOPEKE VA     1000      62   60/  9/ 15   N/A
CHES BAY BRIDGE  1000   56 61   40/ 16/ 18 1005.1R
CAPE HENRY VA    1000   54      50/ 17/ 19   N/A
CHESAPEAKE LGHT  1000   53      50/ 20/ 21 1006.1R
WILLOUBY STN VA  1000   57      60/ 11/ 13 1006.4R
CAPE HENRY BUOY  1012      57                N/A     4/ 4
CAPE CHARLES BUO 1026      57                N/A     4/ 4   2/ 8
OFFSHORE WE BUOY 1021      56                N/A     4/ 7   2/ 7
64NM E OF VA BCH 1050   55 54   30/  6/  8 1004.2F   4/ 7   3/ 7
44100 DUCK FRF   1024      60                N/A     3/ 7
44056 DUCK FRF   1011      58                N/A     2/ 7
OREGON INLET NC  1000   67 71  300/  5/  6 1003.6F
HATTERAS NC      1000   67 69  240/  4/  6 1003.5F
DIAMOND SHLS NC  1050   71 72  230/ 16/ 17 1004.5R   4/ 7   2/ 7
CAPE LOOKOUT NC  1100   69     230/  8/ 12 1005.0R
$$



USA.gov is the U.S. government's official web portal to all federal, state and local government web resources and services.